Location: Unspecified
(51.3762°N, 0.0000°E)
Time: 12:41:48
(UTC+00:00)

nSIGHT-1 - Pass Details

Date: 01 September 2019
Orbit: 342 x 349 km, 51.6° (Epoch: 16 September)

Event Time Altitude Azimuth Distance (km) Brightness Sun altitude
Exits shadow 03:27:11 41° 273° (W) 510 ? -15.6°
Maximum altitude 03:28:02 80° 193° (SSW) 353 ? -15.4°
Drops below altitude 10° 03:30:55 10° 105° (ESE) 1,296 ? -15.1°
Sets 03:32:55 0° 104° (ESE) 2,136 ? -14.8°
